Jackson, KY

8:39 PM EST on November 20, 2019 (GMT -0500)
Carroll

Weather History for KJKL - September, 2019

Change the Weather History Date:

Wednesday, September 25, 2019

  Actual Average Record
Temperature  
Mean Temperature 71 °F 65 °F  
Max Temperature 88 °F 75 °F 89 °F (2005)
Min Temperature 53 °F 55 °F 42 °F (2001)
Degree Days  
Heating Degree Days 0 3  
Month to date heating degree days 0 30  
Since 1 July heating degree days 0 32  
Cooling Degree Days 6 3  
Month to date cooling degree days 289 131  
Year to date cooling degree days 1426 1109  
Growing Degree Days 20 (Base 50)    
Moisture  
Dew Point 47 °F    
Average Humidity 53    
Maximum Humidity 83    
Minimum Humidity 22    
Precipitation  
Precipitation 0.00 in 0.12 in 1.10 in (1994)
Month to date precipitation T 2.88  
Year to date precipitation 39.46 36.43  
Snow  
Snow 0.00 in 0.00 in - ()
Month to date snowfall 0.0 0.0  
Since 1 July snowfall 0.0 0.0  
Since 1 September snowfall 0.0 0.0  
Snow Depth 0.00 in    
Sea Level Pressure  
Sea Level Pressure 29.89 in    
Wind  
Wind Speed 2 mph (SE)    
Max Wind Speed 7 mph    
Max Gust Speed 14 mph    
Visibility 10 miles    
Events      
T = Trace of Precipitation, MM = Missing Value Source: NWS Daily Summary

Daily Weather History Graph

Daily Weather History Graph

Search for Another Location

Airport or City:

Astronomy

Sep. 25, 2019 Rise Set
Actual Time 7:23 AM EDT 7:25 PM EDT
Civil Twilight 6:57 AM EDT 7:51 PM EDT
Nautical Twilight 6:26 AM EDT 8:22 PM EDT
Astronomical Twilight 5:55 AM EDT 8:53 PM EDT
Moon 3:22 AM EDT (9/25) 5:51 PM EDT (9/25)
Length of Visible Light 12h 54m
Length of Day
12h 02m
Waning Crescent, 14% of the Moon is Illuminated
Sep 25
Waning Crescent
Sep 28
New
Oct 5
First Quarter
Oct 13
Full
Oct 21
Last Quarter

Hourly Weather History & Observations

Time (EDT) Temp. Dew Point Humidity Pressure Visibility Wind Dir Wind Speed Gust Speed Precip Events Conditions
12:53 AM 62.1 °F 48.0 °F 60% 29.92 in 10.0 mi ESE 3.5 mph - N/A   Clear
1:53 AM 62.1 °F 46.9 °F 58% 29.91 in 10.0 mi SE 3.5 mph - N/A   Clear
2:53 AM 61.0 °F 46.9 °F 60% 29.90 in 10.0 mi SSE 3.5 mph - N/A   Clear
3:53 AM 60.1 °F 46.9 °F 62% 29.91 in 10.0 mi ESE 3.5 mph - N/A   Clear
4:53 AM 62.1 °F 46.0 °F 56% 29.91 in 10.0 mi Calm Calm - N/A   Clear
5:53 AM 57.9 °F 46.9 °F 67% 29.92 in 10.0 mi East 3.5 mph - N/A   Clear
6:53 AM 53.1 °F 48.0 °F 83% 29.93 in 10.0 mi Calm Calm - N/A   Clear
7:53 AM 54.0 °F 48.0 °F 80% 29.94 in 10.0 mi Calm Calm - N/A   Clear
8:53 AM 59.0 °F 50.0 °F 72% 29.95 in 10.0 mi Calm Calm - N/A   Clear
9:53 AM 64.9 °F 48.9 °F 56% 29.94 in 10.0 mi Calm Calm - N/A   Clear
10:53 AM 69.1 °F 51.1 °F 53% 29.95 in 10.0 mi Calm Calm - N/A   Clear
11:53 AM 77.0 °F 48.9 °F 37% 29.92 in 10.0 mi Calm Calm - N/A   Clear
12:53 PM 81.0 °F 48.0 °F 31% 29.89 in 10.0 mi Variable 5.8 mph - N/A   Clear
1:53 PM 82.9 °F 46.9 °F 28% 29.88 in 10.0 mi Variable 4.6 mph - N/A   Clear
2:53 PM 86.0 °F 44.1 °F 23% 29.86 in 10.0 mi Variable 4.6 mph - N/A   Clear
3:53 PM 87.1 °F 45.0 °F 23% 29.84 in 10.0 mi Calm Calm - N/A   Clear
4:53 PM 84.9 °F 45.0 °F 25% 29.83 in 10.0 mi Variable 4.6 mph - N/A   Clear
5:53 PM 84.0 °F 45.0 °F 25% 29.84 in 10.0 mi Calm Calm - N/A   Clear
6:53 PM 81.0 °F 46.0 °F 29% 29.85 in 10.0 mi Calm Calm - N/A   Clear
7:53 PM 79.0 °F 45.0 °F 30% 29.85 in 10.0 mi Calm Calm - N/A   Clear
8:53 PM 78.1 °F 46.0 °F 32% 29.87 in 10.0 mi Calm Calm - N/A   Partly Cloudy
9:53 PM 75.0 °F 48.9 °F 40% 29.88 in 10.0 mi Calm Calm - N/A   Mostly Cloudy
10:53 PM 73.9 °F 48.9 °F 41% 29.88 in 10.0 mi Calm Calm - N/A   Scattered Clouds
11:53 PM 71.1 °F 51.1 °F 49% 29.88 in 10.0 mi Variable 3.5 mph - N/A   Scattered Clouds